When you browse on this site, cookies collect data to enhance your experience and personalize the content and advertising you see.
Visit our Privacy Policy to learn more. By continuing to use the site, you agree to this use of cookies and data.
  • In Lithuania
  • List of Countries
  • For 7 days
  • Water Temperature
  • Weather Map
  • Weather Widgets
  • user-avatar
    Login

    Hourly Weather Mauritius

    Today, 29 March, Sunday

    Time Temperature Precipitation Wind Pressure Humidity
    00:00 +25°C° 0.1 mm 4 mps 721 mmHg 91%
    01:00 +25°C° 0.1 mm 3 mps 721 mmHg 92%
    02:00 +25°C° 0.1 mm 3 mps 720 mmHg 92%
    03:00 +25°C° 0.1 mm 3 mps 720 mmHg 93%
    04:00 +25°C° 0 mm 3 mps 719 mmHg 92%
    05:00 +25°C° 0.1 mm 4 mps 720 mmHg 92%
    06:00 +25°C° 0.1 mm 4 mps 720 mmHg 91%
    07:00 +25°C° 0.1 mm 4 mps 720 mmHg 90%
    08:00 +26°C° 0.1 mm 4 mps 720 mmHg 87%
    09:00 +27°C° 0.1 mm 5 mps 720 mmHg 83%
    10:00 +28°C° 0 mm 5 mps 720 mmHg 79%
    11:00 +28°C° 0.2 mm 5 mps 720 mmHg 77%
    12:00 +29°C° 0.2 mm 5 mps 720 mmHg 75%
    13:00 +29°C° 0.2 mm 5 mps 720 mmHg 73%
    14:00 +29°C° 0.4 mm 5 mps 719 mmHg 75%
    15:00 +28°C° 0.4 mm 5 mps 719 mmHg 77%
    16:00 +28°C° 0.4 mm 5 mps 719 mmHg 79%
    17:00 +27°C° 0.3 mm 5 mps 719 mmHg 82%
    18:00 +27°C° 0.3 mm 5 mps 719 mmHg 84%
    19:00 +26°C° 0.3 mm 5 mps 719 mmHg 87%
    20:00 +26°C° 0.2 mm 5 mps 720 mmHg 88%
    21:00 +26°C° 0.2 mm 5 mps 720 mmHg 88%
    22:00 +25°C° 0.2 mm 5 mps 720 mmHg 89%
    23:00 +25°C° 0.1 mm 5 mps 720 mmHg 89%

    Tomorrow, 30 March, Monday

    Time Temperature Precipitation Wind Pressure Humidity
    00:00 +25°C° 0.1 mm 5 mps 720 mmHg 90%
    01:00 +25°C° 0.1 mm 5 mps 720 mmHg 90%
    02:00 +25°C° 0 mm 4 mps 719 mmHg 90%
    03:00 +25°C° 0 mm 4 mps 719 mmHg 90%
    04:00 +25°C° 0 mm 4 mps 718 mmHg 90%
    05:00 +25°C° 0 mm 4 mps 719 mmHg 89%
    06:00 +25°C° 0 mm 4 mps 719 mmHg 89%
    07:00 +25°C° 0 mm 4 mps 719 mmHg 89%
    08:00 +26°C° 0 mm 4 mps 719 mmHg 84%
    09:00 +27°C° 0 mm 4 mps 720 mmHg 80%
    10:00 +28°C° 0 mm 4 mps 720 mmHg 75%
    11:00 +29°C° 0.2 mm 5 mps 720 mmHg 74%
    12:00 +29°C° 0.2 mm 5 mps 720 mmHg 73%
    13:00 +29°C° 0.2 mm 5 mps 719 mmHg 72%
    14:00 +29°C° 1.2 mm 5 mps 719 mmHg 74%
    15:00 +28°C° 1.2 mm 5 mps 719 mmHg 76%
    16:00 +28°C° 1.2 mm 4 mps 719 mmHg 77%
    17:00 +27°C° 0.4 mm 4 mps 719 mmHg 81%
    18:00 +27°C° 0.4 mm 4 mps 719 mmHg 84%
    19:00 +26°C° 0.4 mm 4 mps 719 mmHg 87%
    20:00 +26°C° 0.1 mm 4 mps 720 mmHg 88%
    21:00 +26°C° 0.1 mm 4 mps 720 mmHg 88%
    22:00 +26°C° 0.1 mm 4 mps 720 mmHg 89%
    23:00 +26°C° 0.1 mm 4 mps 720 mmHg 90%

    Day after tomorrow, 31 March, Tuesday

    Time Temperature Precipitation Wind Pressure Humidity
    00:00 +26°C° 0.1 mm 4 mps 720 mmHg 90%
    01:00 +26°C° 0.1 mm 4 mps 720 mmHg 91%
    02:00 +25°C° 0.1 mm 4 mps 719 mmHg 91%
    03:00 +25°C° 0.1 mm 4 mps 719 mmHg 91%
    04:00 +25°C° 0.1 mm 4 mps 719 mmHg 91%
    05:00 +25°C° 0 mm 4 mps 719 mmHg 91%
    06:00 +25°C° 0 mm 4 mps 719 mmHg 91%
    07:00 +26°C° 0 mm 4 mps 720 mmHg 91%
    08:00 +26°C° 0.3 mm 4 mps 720 mmHg 87%
    09:00 +27°C° 0.3 mm 4 mps 720 mmHg 83%
    10:00 +28°C° 0.3 mm 4 mps 721 mmHg 79%
    11:00 +28°C° 0.8 mm 4 mps 720 mmHg 78%
    12:00 +29°C° 0.8 mm 4 mps 720 mmHg 77%
    13:00 +29°C° 0.8 mm 4 mps 720 mmHg 76%
    14:00 +29°C° 1.2 mm 4 mps 720 mmHg 76%
    15:00 +28°C° 1.2 mm 4 mps 719 mmHg 77%
    16:00 +28°C° 1.2 mm 4 mps 719 mmHg 77%
    17:00 +28°C° 0.7 mm 4 mps 720 mmHg 81%
    18:00 +27°C° 0.7 mm 4 mps 720 mmHg 84%
    19:00 +26°C° 0.7 mm 3 mps 720 mmHg 88%
    20:00 +26°C° 0.4 mm 3 mps 720 mmHg 88%
    21:00 +26°C° 0.4 mm 3 mps 721 mmHg 89%
    22:00 +26°C° 0.4 mm 3 mps 721 mmHg 90%
    23:00 +26°C° 0.4 mm 3 mps 721 mmHg 90%

    1 April, Wednesday

    Time Temperature Precipitation Wind Pressure Humidity
    00:00 +25°C° 0.4 mm 2 mps 720 mmHg 90%
    01:00 +25°C° 0.4 mm 2 mps 720 mmHg 90%
    02:00 +25°C° 0.7 mm 2 mps 720 mmHg 90%
    03:00 +25°C° 0.7 mm 2 mps 720 mmHg 89%
    04:00 +25°C° 0.7 mm 2 mps 719 mmHg 89%
    05:00 +25°C° 0.8 mm 2 mps 719 mmHg 88%
    06:00 +25°C° 0.8 mm 2 mps 719 mmHg 88%
    07:00 +25°C° 0.8 mm 2 mps 720 mmHg 88%
    08:00 +26°C° 0.9 mm 2 mps 720 mmHg 84%
    09:00 +27°C° 0.9 mm 3 mps 720 mmHg 80%
    10:00 +28°C° 0.9 mm 3 mps 721 mmHg 76%
    11:00 +28°C° 0.1 mm 3 mps 720 mmHg 75%
    12:00 +28°C° 0.1 mm 3 mps 720 mmHg 74%
    13:00 +29°C° 0.1 mm 3 mps 720 mmHg 74%
    14:00 +29°C° 0.1 mm 3 mps 719 mmHg 73%
    15:00 +29°C° 0.1 mm 3 mps 719 mmHg 73%
    16:00 +29°C° 0.1 mm 2 mps 719 mmHg 72%
    17:00 +28°C° 0.6 mm 2 mps 719 mmHg 76%
    18:00 +27°C° 0.6 mm 2 mps 719 mmHg 81%
    19:00 +26°C° 0.6 mm 2 mps 720 mmHg 85%
    20:00 +26°C° 0.3 mm 2 mps 720 mmHg 86%
    21:00 +26°C° 0.3 mm 3 mps 720 mmHg 86%
    22:00 +26°C° 0.3 mm 3 mps 720 mmHg 87%
    23:00 +26°C° 0.1 mm 3 mps 720 mmHg 87%

    2 April, Thursday

    Time Temperature Precipitation Wind Pressure Humidity
    00:00 +25°C° 0.1 mm 3 mps 720 mmHg 87%
    01:00 +25°C° 0.1 mm 3 mps 719 mmHg 88%
    02:00 +25°C° 0 mm 3 mps 719 mmHg 88%
    03:00 +25°C° 0 mm 3 mps 719 mmHg 88%
    04:00 +25°C° 0 mm 3 mps 719 mmHg 88%
    05:00 +25°C° 0.1 mm 3 mps 719 mmHg 88%
    06:00 +25°C° 0.1 mm 4 mps 719 mmHg 88%
    07:00 +25°C° 0.1 mm 4 mps 719 mmHg 88%
    08:00 +26°C° 0.3 mm 4 mps 720 mmHg 83%
    09:00 +27°C° 0.3 mm 4 mps 720 mmHg 79%
    10:00 +28°C° 0.3 mm 5 mps 720 mmHg 75%
    11:00 +28°C° 0.3 mm 5 mps 720 mmHg 72%
    12:00 +28°C° 0.3 mm 4 mps 719 mmHg 70%
    13:00 +29°C° 0.3 mm 4 mps 719 mmHg 68%
    14:00 +28°C° 0.1 mm 4 mps 719 mmHg 68%
    15:00 +28°C° 0.1 mm 4 mps 719 mmHg 69%
    16:00 +28°C° 0.1 mm 4 mps 719 mmHg 69%
    17:00 +27°C° 0 mm 4 mps 719 mmHg 74%
    18:00 +26°C° 0 mm 4 mps 719 mmHg 78%
    19:00 +25°C° 0 mm 3 mps 719 mmHg 83%
    20:00 +25°C° 0 mm 3 mps 720 mmHg 84%
    21:00 +25°C° 0 mm 3 mps 720 mmHg 86%
    22:00 +25°C° 0 mm 3 mps 720 mmHg 87%
    23:00 +25°C° 0 mm 3 mps 720 mmHg 87%

    3 April, Friday

    Time Temperature Precipitation Wind Pressure Humidity
    00:00 +25°C° 0 mm 3 mps 720 mmHg 88%
    01:00 +25°C° 0 mm 2 mps 720 mmHg 89%
    02:00 +25°C° 0 mm 2 mps 719 mmHg 89%
    03:00 +24°C° 0 mm 2 mps 719 mmHg 90%
    04:00 +24°C° 0 mm 2 mps 719 mmHg 90%
    05:00 +25°C° 0.1 mm 2 mps 719 mmHg 90%
    06:00 +25°C° 0.1 mm 2 mps 719 mmHg 90%
    07:00 +25°C° 0.1 mm 2 mps 719 mmHg 90%
    08:00 +26°C° 0.1 mm 3 mps 720 mmHg 84%
    09:00 +27°C° 0.1 mm 3 mps 720 mmHg 79%
    10:00 +28°C° 0.1 mm 4 mps 720 mmHg 74%
    11:00 +28°C° 0.4 mm 4 mps 720 mmHg 72%
    12:00 +29°C° 0.4 mm 4 mps 720 mmHg 70%
    13:00 +29°C° 0.4 mm 4 mps 719 mmHg 68%
    14:00 +29°C° 0.2 mm 4 mps 719 mmHg 69%
    15:00 +28°C° 0.2 mm 4 mps 719 mmHg 70%
    16:00 +28°C° 0.2 mm 4 mps 719 mmHg 71%
    17:00 +27°C° 0 mm 3 mps 719 mmHg 75%
    18:00 +26°C° 0 mm 3 mps 719 mmHg 79%
    19:00 +26°C° 0 mm 3 mps 720 mmHg 82%
    20:00 +26°C° 0.1 mm 2 mps 720 mmHg 84%
    21:00 +25°C° 0.1 mm 2 mps 720 mmHg 85%
    22:00 +25°C° 0.1 mm 2 mps 720 mmHg 87%
    23:00 +25°C° 0.3 mm 2 mps 720 mmHg 88%
    Show more